[[{"header":{"parameterUnit":"m.s-1","parameterCategory":1,"la1":30.2991,"la2":30.254,"lo1":-89.0895,"lo2":-89.0444,"dy":0.0017,"dx":0.0017,"nx":28,"ny":28,"refTime":"2025-04-01T03:00:00:Z","depth":0,"parameterNumber":2,"parameterNumberName":"U-component_of_WINDS"},"data":[0,0,0,0,0,0,0,0,0,0,0,0,0,0,0,0,0,0,0,0,0,0,0,0,0,0,0,0,0,0,0,0,0,0,0,0,0,0,0,0,0,0,0,0,0,0,0,0,0,0,0,0,0,0,0,0,0,0,1.3281,1.3281,0,1.3344,1.3345,1.3345,1.3284,1.3281,1.3279,1.3276,1.3345,1.3349,1.3353,0,0,0,0,0,0,0,0,0,0,0,0,0,1.3112,1.3115,1.3281,1.3282,1.3282,1.3344,1.3345,1.3345,1.3284,1.3281,1.3278,1.3275,1.3343,1.3348,1.3353,0,0,0,0,0,0,0,0,0,0,0,0,0,1.3181,1.3117,1.3281,1.3259,1.3258,1.3344,1.3345,1.3346,1.3285,1.3281,1.3277,1.3274,1.3342,1.3348,1.3354,1.3465,0,0,1.3373,1.3375,0,0,0,0,0,0,0,0,1.3177,1.3188,1.3261,1.3261,1.3259,1.3302,1.331,1.3386,1.3286,1.3275,1.3276,1.3272,1.3334,1.334,1.336,1.3468,1.3471,1.3373,1.3377,1.3379,1.3381,0,0,0,0,0,0,0,1.3173,1.3185,1.3306,1.3263,1.3261,1.3248,1.3253,1.3324,1.3324,1.3275,1.3271,1.3279,1.3332,1.3354,1.3361,1.3472,1.3373,1.3378,1.3382,1.3385,1.3678,1.3682,0,0,0,0,0,0,1.317,1.3181,1.3304,1.3308,1.3208,1.3254,1.326,1.3292,1.3323,1.3324,1.3282,1.3276,1.3346,1.3354,1.3364,1.3498,1.3379,1.3385,1.3389,1.3674,1.3679,1.3683,0,0,0,0,0,0,1.3166,1.3181,1.3301,1.3243,1.3257,1.326,1.3297,1.3295,1.3317,1.3328,1.3328,1.3304,1.3343,1.3355,1.3441,1.3499,1.3388,1.3394,1.3669,1.3675,1.3681,1.3767,0,0,0,0,0,0,1.3162,1.318,1.3221,1.3244,1.3261,1.3376,1.33,1.3299,1.3327,1.332,1.3349,1.335,1.3341,1.3432,1.3447,1.3506,1.3398,1.3664,1.3672,1.3679,1.3759,1.3775,1.3789,0,0,0,0,0,1.3156,1.3243,1.3224,1.3239,1.3312,1.338,1.3389,1.3375,1.3332,1.3375,1.3382,1.335,1.349,1.3441,1.3458,1.3519,1.366,1.367,1.3679,1.3752,1.3772,1.3788,0,0,0,0,0,0,1.3228,1.3246,1.3224,1.3322,1.335,1.3369,1.3422,1.3397,1.3438,1.343,1.3412,1.342,1.3511,1.3523,1.3468,1.363,1.3568,1.3581,1.3619,1.3638,1.3652,1.3648,1.3403,0,0,0,0,0,1.3255,1.3307,1.332,1.3405,1.342,1.3419,1.3448,1.3435,1.3464,1.3475,1.3489,1.3519,1.357,1.3604,1.3652,1.376,1.3767,1.3811,1.3826,1.3838,1.385,1.391,1.3931,1.3714,1.3714,1.3713,0,0,1.3312,1.3328,1.3362,1.342,1.344,1.3496,1.3429,1.3491,1.3533,1.3485,1.3567,1.3578,1.3611,1.3709,1.3753,1.3722,1.3911,1.385,1.386,1.3865,1.3922,1.3942,1.3961,1.372,1.3719,1.3718,0,0,1.3444,1.346,1.3533,1.3555,1.3586,1.3585,1.3603,1.3627,1.3632,1.3714,1.368,1.3731,1.3819,1.3844,1.3868,1.4012,1.3985,1.4028,1.4108,1.4167,1.4184,1.4199,1.4253,1.4272,1.404,1.404,1.404,0,1.351,1.3592,1.3575,1.3639,1.3667,1.3626,1.3701,1.3723,1.3769,1.379,1.3755,1.3865,1.3884,1.3989,1.4024,1.4045,1.4066,1.4025,1.4183,1.4198,1.4212,1.4262,1.4282,1.4045,1.4045,1.4044,1.4044,0,1.3674,1.3731,1.3787,1.3831,1.3865,1.3935,1.393,1.3967,1.3951,1.3955,1.404,1.4062,1.4114,1.4137,1.4123,1.4241,1.4221,1.4185,1.4123,1.4238,1.4285,1.4304,1.4053,1.4051,1.4049,1.4048,0,0,1.3852,1.3887,1.3908,1.3929,1.3961,1.4006,1.4075,1.4125,1.4158,1.4191,1.425,1.4326,1.4293,1.4321,1.431,1.4362,1.4477,1.4319,1.432,1.4349,1.461,1.4638,1.4661,1.4458,1.4462,1.4465,1.4608,0,1.3987,1.4105,1.4092,1.4206,1.426,1.4223,1.4283,1.431,1.4316,1.4364,1.437,1.4425,1.4377,1.4394,1.4443,1.4452,1.4529,1.4442,1.4515,1.4518,1.4509,1.4685,1.4714,1.4848,1.4626,1.4629,1.4631,0,1.4159,1.4198,1.4317,1.4343,1.4365,1.4419,1.4465,1.4511,1.4542,1.4543,1.4575,1.4555,1.4627,1.4563,1.4662,1.4603,1.4632,1.4642,1.4647,1.4654,1.4582,1.4699,1.489,1.4911,1.466,1.4658,1.4656,0,1.4279,1.4362,1.4444,1.4463,1.4495,1.4534,1.4549,1.4577,1.4608,1.4649,1.467,1.4719,1.4747,1.4786,1.4781,1.4734,1.4883,1.4818,1.4887,1.4887,1.4921,1.4919,1.5122,1.4938,1.4937,1.4937,1.4937,0,1.4431,1.4506,1.4499,1.455,1.4633,1.4619,1.4702,1.4713,1.4738,1.4792,1.4763,1.4814,1.4803,1.4855,1.4852,1.4936,1.4948,1.4952,1.495,1.4955,1.4955,1.4975,1.4966,1.4942,1.4941,1.494,1.4939,0,1.458,1.4578,1.4666,1.4689,1.4697,1.4757,1.4778,1.4827,1.483,1.4899,1.4914,1.492,1.4979,1.4978,1.5046,1.5044,1.5148,1.5135,1.5137,1.5135,1.5205,1.5199,1.5428,1.5458,1.5254,1.5256,1.5257,0,1.4678,1.4734,1.4764,1.4797,1.4815,1.4869,1.4901,1.489,1.4925,1.4966,1.5011,1.5068,1.5113,1.521,1.5222,1.5274,1.5263,1.534,1.5271,1.5274,1.5266,1.5263,1.527,1.5354,1.5356,1.5358,1.5359,0,1.4852,1.4849,1.4895,1.4943,1.4983,1.502,1.5054,1.5083,1.5076,1.5118,1.5178,1.5213,1.5282,1.534,1.5391,1.5408,1.5384,1.5381,1.54,1.5406,1.5406,1.5409,1.5175,1.5376,1.5374,1.5373,1.5372,1.5371,1.4979,1.5028,1.5057,1.5111,1.5136,1.5169,1.5217,1.5226,1.5276,1.5331,1.5322,1.539,1.5422,1.5487,1.5509,1.5564,1.5537,1.5564,1.5571,1.5578,1.5587,1.5396,1.5573,1.5572,1.5572,1.5571,1.5571,0,1.5153,1.517,1.522,1.5268,1.5312,1.5284,1.5321,1.5359,1.5419,1.5451,1.5495,1.5566,1.5622,1.5638,1.5693,1.5734,1.5724,1.5749,1.5746,1.5751,1.5607,1.5586,1.5755,1.5755,1.5755,1.5755,1.5755,1.5755,1.5248,1.5331,1.5332,1.5427,1.5444,1.5509,1.5533,1.5564,1.5589,1.5669,1.5716,1.5725,1.5752,1.5808,1.5859,1.5863,1.5885,1.5914,1.5914,1.5779,1.5761,1.5743,1.5723,1.5919,1.5919,1.6053,1.6054,1.6055]},{"header":{"parameterUnit":"m.s-1","parameterCategory":1,"la1":30.2991,"la2":30.254,"lo1":-89.0895,"lo2":-89.0444,"dy":0.0017,"dx":0.0017,"nx":28,"ny":28,"refTime":"2025-04-01T03:00:00:Z","depth":0,"parameterNumber":3,"parameterNumberName":"V-component_of_WINDS"},"data":[0,0,0,0,0,0,0,0,0,0,0,0,0,0,0,0,0,0,0,0,0,0,0,0,0,0,0,0,0,0,0,0,0,0,0,0,0,0,0,0,0,0,0,0,0,0,0,0,0,0,0,0,0,0,0,0,0,0,-0.6141,-0.6139,0,-0.6001,-0.5999,-0.5997,-0.6003,-0.6005,-0.6007,-0.6009,-0.5851,-0.5845,-0.5839,0,0,0,0,0,0,0,0,0,0,0,0,0,-0.6398,-0.6393,-0.6141,-0.6139,-0.6137,-0.6001,-0.5999,-0.5997,-0.6003,-0.6005,-0.6008,-0.601,-0.5853,-0.5846,-0.5839,0,0,0,0,0,0,0,0,0,0,0,0,0,-0.6275,-0.6392,-0.6141,-0.6124,-0.6121,-0.6001,-0.5999,-0.5997,-0.6002,-0.6005,-0.6008,-0.6011,-0.5856,-0.5847,-0.5838,-0.5721,0,0,-0.581,-0.5806,0,0,0,0,0,0,0,0,-0.6282,-0.6265,-0.6128,-0.6125,-0.6122,-0.6023,-0.6032,-0.5904,-0.6002,-0.6047,-0.6009,-0.6013,-0.5905,-0.5892,-0.5859,-0.5714,-0.5707,-0.5809,-0.5804,-0.58,-0.5797,0,0,0,0,0,0,0,-0.629,-0.6271,-0.6085,-0.6126,-0.6122,-0.6118,-0.6104,-0.6008,-0.596,-0.6043,-0.6044,-0.6028,-0.5904,-0.5867,-0.5855,-0.5705,-0.5809,-0.5801,-0.5796,-0.5792,-0.5452,-0.5448,0,0,0,0,0,0,-0.6305,-0.6278,-0.6089,-0.6081,-0.6211,-0.6111,-0.6096,-0.6051,-0.5962,-0.5951,-0.6025,-0.6028,-0.5882,-0.5866,-0.5849,-0.5704,-0.58,-0.5791,-0.5786,-0.5455,-0.5451,-0.5447,0,0,0,0,0,0,-0.631,-0.6288,-0.6095,-0.618,-0.6155,-0.6104,-0.6054,-0.6047,-0.6011,-0.5948,-0.5938,-0.5998,-0.5883,-0.5862,-0.5753,-0.5698,-0.5787,-0.5779,-0.546,-0.5454,-0.5449,-0.5414,0,0,0,0,0,0,-0.6317,-0.629,-0.6249,-0.6179,-0.6151,-0.6006,-0.6051,-0.6042,-0.5997,-0.6,-0.592,-0.5909,-0.5884,-0.5767,-0.5744,-0.5687,-0.5772,-0.5464,-0.5457,-0.5451,-0.5419,-0.5408,-0.5398,0,0,0,0,0,-0.6327,-0.6242,-0.6247,-0.6224,-0.6099,-0.6003,-0.5986,-0.5963,-0.5993,-0.5948,-0.5907,-0.5912,-0.5709,-0.5755,-0.573,-0.567,-0.5467,-0.5459,-0.5451,-0.5424,-0.541,-0.5398,0,0,0,0,0,0,-0.6302,-0.6233,-0.6237,-0.6129,-0.6072,-0.6004,-0.5948,-0.5949,-0.5879,-0.5884,-0.5854,-0.5836,-0.5725,-0.5687,-0.574,-0.555,-0.5591,-0.5578,-0.5579,-0.5565,-0.5555,-0.5564,-0.5764,0,0,0,0,0,-0.6286,-0.6218,-0.6159,-0.6068,-0.604,-0.5999,-0.5956,-0.5943,-0.5881,-0.5856,-0.5807,-0.5743,-0.5664,-0.5613,-0.5537,-0.5414,-0.5394,-0.536,-0.5349,-0.5341,-0.5328,-0.5255,-0.5238,-0.5421,-0.5421,-0.5421,0,0,-0.6248,-0.6201,-0.616,-0.6062,-0.6017,-0.5942,-0.5978,-0.5899,-0.5841,-0.5842,-0.5737,-0.5699,-0.5624,-0.5507,-0.5452,-0.5471,-0.5274,-0.5331,-0.5324,-0.5316,-0.5245,-0.5228,-0.5213,-0.5415,-0.5416,-0.5417,0,0,-0.614,-0.6101,-0.602,-0.5974,-0.5907,-0.5879,-0.586,-0.5791,-0.5767,-0.5661,-0.5659,-0.5588,-0.5455,-0.5401,-0.5356,-0.5226,-0.5226,-0.5202,-0.5144,-0.5074,-0.5059,-0.5046,-0.4996,-0.4978,-0.519,-0.519,-0.519,0,-0.6101,-0.5994,-0.5976,-0.5896,-0.5851,-0.5853,-0.5767,-0.5722,-0.5631,-0.5597,-0.5621,-0.5452,-0.5402,-0.527,-0.5238,-0.5203,-0.5175,-0.521,-0.5064,-0.505,-0.5038,-0.4989,-0.4971,-0.5188,-0.5188,-0.5188,-0.5189,0,-0.5946,-0.5871,-0.5813,-0.5729,-0.5677,-0.5595,-0.556,-0.5508,-0.5499,-0.5468,-0.5357,-0.5298,-0.5209,-0.5177,-0.5166,-0.5041,-0.5055,-0.5071,-0.5111,-0.5018,-0.4971,-0.4953,-0.5184,-0.5185,-0.5186,-0.5186,0,0,-0.5819,-0.5727,-0.5706,-0.5666,-0.5591,-0.553,-0.5445,-0.5362,-0.5316,-0.5253,-0.5177,-0.5063,-0.5078,-0.5026,-0.5009,-0.4948,-0.4843,-0.4971,-0.4969,-0.4946,-0.4696,-0.4682,-0.4661,-0.4844,-0.484,-0.4838,-0.4701,0,-0.5701,-0.5556,-0.5537,-0.5405,-0.5333,-0.5333,-0.5257,-0.52,-0.5168,-0.5097,-0.5059,-0.4978,-0.5006,-0.4974,-0.4914,-0.4869,-0.4792,-0.4879,-0.4767,-0.4763,-0.4783,-0.4638,-0.4623,-0.4497,-0.4683,-0.468,-0.4678,0,-0.5545,-0.5481,-0.5343,-0.5276,-0.5244,-0.5178,-0.5098,-0.5033,-0.4966,-0.4946,-0.4889,-0.4878,-0.4784,-0.4831,-0.4697,-0.4756,-0.4709,-0.468,-0.4674,-0.466,-0.4713,-0.4615,-0.4457,-0.4436,-0.465,-0.4652,-0.4654,0,-0.5461,-0.534,-0.5242,-0.5208,-0.5128,-0.508,-0.5043,-0.498,-0.493,-0.4858,-0.4825,-0.4742,-0.4695,-0.4629,-0.4594,-0.4632,-0.4461,-0.4506,-0.4436,-0.4437,-0.4398,-0.44,-0.4226,-0.4374,-0.4374,-0.4374,-0.4375,0,-0.533,-0.5245,-0.5203,-0.5142,-0.5044,-0.5021,-0.4923,-0.4887,-0.483,-0.4757,-0.4751,-0.4682,-0.4642,-0.4565,-0.4537,-0.4428,-0.4408,-0.4385,-0.4377,-0.4383,-0.4386,-0.4349,-0.4356,-0.4369,-0.437,-0.4371,-0.4372,0,-0.5219,-0.5189,-0.5081,-0.5014,-0.4995,-0.4925,-0.4865,-0.4802,-0.4771,-0.4679,-0.4655,-0.4603,-0.4512,-0.4473,-0.436,-0.434,-0.4214,-0.4215,-0.4238,-0.4235,-0.4166,-0.4172,-0.3959,-0.3928,-0.41,-0.4099,-0.4098,0,-0.5136,-0.5071,-0.4998,-0.4951,-0.4914,-0.4838,-0.4788,-0.4761,-0.4708,-0.4625,-0.4571,-0.4481,-0.4408,-0.4261,-0.421,-0.4122,-0.4118,-0.405,-0.4104,-0.4111,-0.4111,-0.4114,-0.4105,-0.4038,-0.4037,-0.4035,-0.4034,0,-0.499,-0.4978,-0.4909,-0.4833,-0.4774,-0.4712,-0.4651,-0.4611,-0.4573,-0.4513,-0.4422,-0.4366,-0.4251,-0.416,-0.4069,-0.4024,-0.402,-0.4018,-0.3996,-0.4,-0.4014,-0.4001,-0.4207,-0.4022,-0.4023,-0.4024,-0.4025,-0.4025,-0.4888,-0.4829,-0.4768,-0.4689,-0.4641,-0.4583,-0.4521,-0.4482,-0.4408,-0.4316,-0.4303,-0.4204,-0.4133,-0.4012,-0.3964,-0.3882,-0.3898,-0.3868,-0.386,-0.3852,-0.3846,-0.4031,-0.3866,-0.3866,-0.3866,-0.3867,-0.3867,0,-0.4738,-0.4699,-0.4628,-0.4544,-0.448,-0.4488,-0.442,-0.4365,-0.428,-0.4217,-0.4146,-0.4038,-0.3949,-0.3891,-0.3799,-0.3745,-0.374,-0.3721,-0.3723,-0.3711,-0.3839,-0.3865,-0.3726,-0.3726,-0.3726,-0.3726,-0.3726,-0.3726,-0.4653,-0.4552,-0.4532,-0.4405,-0.4365,-0.4272,-0.4232,-0.4176,-0.4126,-0.4008,-0.3936,-0.39,-0.3837,-0.374,-0.3657,-0.3641,-0.3605,-0.3585,-0.3569,-0.3689,-0.3703,-0.3717,-0.3741,-0.3579,-0.3578,-0.3448,-0.3447,-0.3446]}]]